| time (UTC) | temp F | wind direction | speed knots | gust knots | rain 1hr in | rain 24hr in | rain mn in | humidity % | barometer mb |
| 20260905051003 | 76 | 320 | 1.7 | 5.2 | 0.00 | 0.48 | 0.00 | 91 | 1011.4 |
| 20260905050503 | 76 | 313 | 2.6 | 5.2 | 0.00 | 0.48 | 0.00 | 91 | 1011.6 |
| 20260905050003 | 76 | 317 | 1.7 | 7.8 | 0.00 | 0.48 | 0.00 | 91 | 1011.6 |
| 20260905045503 | 76 | 329 | 0.9 | 7.8 | 0.00 | 0.48 | 0.00 | 92 | 1011.6 |
| 20260905045003 | 77 | 332 | 0.9 | 4.3 | 0.00 | 0.48 | 0.00 | 92 | 1011.6 |
| 20260905044503 | 77 | 340 | 0.9 | 3.5 | 0.00 | 0.48 | 0.00 | 92 | 1011.6 |
| 20260905044004 | 77 | 358 | 0.9 | 3.5 | 0.00 | 0.48 | 0.00 | 93 | 1011.6 |
| 20260905043004 | 77 | 353 | 0.9 | 2.6 | 0.00 | 0.48 | 0.00 | 93 | 1011.9 |
| 20260905042503 | 77 | 351 | 0.9 | 2.6 | 0.00 | 0.48 | 0.00 | 93 | 1011.8 |
| 20260905042003 | 77 | 347 | 0.9 | 3.5 | 0.00 | 0.48 | 0.00 | 93 | 1011.7 |
| 20260905041503 | 77 | 351 | 0.9 | 3.5 | 0.00 | 0.48 | 0.00 | 93 | 1011.7 |
| 20260905041003 | 77 | 5 | 0.0 | 1.7 | 0.00 | 0.48 | 0.00 | 92 | 1011.7 |
| 20260905040503 | 77 | 4 | 0.9 | 1.7 | 0.00 | 0.48 | 0.00 | 92 | 1011.9 |
| 20260905040004 | 77 | 5 | 0.9 | 1.7 | 0.00 | 0.48 | 0.00 | 92 | 1011.9 |
| 20260905035503 | 77 | 4 | 0.9 | 1.7 | 0.00 | 0.48 | 0.48 | 92 | 1011.8 |
| 20260905035003 | 77 | 2 | 0.9 | 1.7 | 0.00 | 0.48 | 0.48 | 92 | 1011.8 |
| 20260905034503 | 77 | 3 | 0.9 | 1.7 | 0.00 | 0.48 | 0.48 | 92 | 1011.9 |
| 20260905034003 | 77 | 358 | 0.9 | 2.6 | 0.00 | 0.48 | 0.48 | 91 | 1012.0 |
| 20260905033003 | 77 | 332 | 0.9 | 2.6 | 0.00 | 0.48 | 0.48 | 91 | 1011.9 |
| 20260905032503 | 77 | 326 | 0.0 | 2.6 | 0.00 | 0.48 | 0.48 | 90 | 1012.0 |
| 20260905032003 | 77 | 334 | 0.0 | 2.6 | 0.00 | 0.48 | 0.48 | 89 | 1012.0 |
| 20260905031503 | 77 | 350 | 0.0 | 2.6 | 0.00 | 0.48 | 0.48 | 89 | 1012.0 |
| 20260905031004 | 78 | 30 | 0.0 | 1.7 | 0.00 | 0.48 | 0.48 | 89 | 1012.2 |
| 20260905030503 | 78 | 346 | 0.9 | 3.5 | 0.00 | 0.48 | 0.48 | 89 | 1012.2 |
| 20260905030004 | 78 | 336 | 0.9 | 3.5 | 0.00 | 0.48 | 0.48 | 89 | 1012.3 |
| 20260905025503 | 78 | 340 | 0.0 | 1.7 | 0.00 | 0.48 | 0.48 | 89 | 1012.4 |
| 20260905025003 | 78 | 16 | 0.0 | 1.7 | 0.00 | 0.48 | 0.48 | 89 | 1012.4 |
| 20260905024003 | 78 | 8 | 0.0 | 1.7 | 0.00 | 0.48 | 0.48 | 89 | 1012.4 |
| 20260905023504 | 78 | 3 | 0.0 | 1.7 | 0.00 | 0.48 | 0.48 | 89 | 1012.4 |
| 20260905023003 | 78 | 3 | 0.0 | 1.7 | 0.00 | 0.48 | 0.48 | 89 | 1012.3 |
| 20260905022503 | 78 | 4 | 0.0 | 1.7 | 0.00 | 0.48 | 0.48 | 88 | 1012.3 |
| 20260905021503 | 78 | 332 | 0.0 | 1.7 | 0.00 | 0.48 | 0.48 | 88 | 1012.6 |
| 20260905021003 | 78 | 5 | 0.0 | 0.9 | 0.00 | 0.48 | 0.48 | 88 | 1012.5 |
| 20260905020503 | 78 | 10 | 0.0 | 1.7 | 0.00 | 0.48 | 0.48 | 87 | 1012.4 |
| 20260905020003 | 78 | 23 | 0.0 | 1.7 | 0.00 | 0.48 | 0.48 | 87 | 1012.3 |
| 20260905015503 | 78 | 4 | 0.9 | 3.5 | 0.00 | 0.48 | 0.48 | 87 | 1012.2 |
| 20260905015003 | 78 | 2 | 0.9 | 3.5 | 0.00 | 0.48 | 0.48 | 87 | 1012.2 |
| 20260905014504 | 78 | 1 | 0.9 | 2.6 | 0.00 | 0.48 | 0.48 | 87 | 1012.2 |
| 20260905014003 | 78 | 1 | 0.9 | 2.6 | 0.00 | 0.48 | 0.48 | 87 | 1012.5 |
| 20260905013503 | 78 | 1 | 0.9 | 2.6 | 0.00 | 0.48 | 0.48 | 87 | 1012.5 |
| 20260905013003 | 79 | 1 | 0.0 | 1.7 | 0.00 | 0.48 | 0.48 | 87 | 1012.5 |
| 20260905012504 | 79 | 0 | 0.0 | 0.0 | 0.00 | 0.48 | 0.48 | 87 | 1012.4 |
| 20260905012003 | 79 | 40 | 0.0 | 1.7 | 0.00 | 0.48 | 0.48 | 87 | 1012.4 |
| 20260905011503 | 79 | 12 | 0.0 | 2.6 | 0.00 | 0.48 | 0.48 | 88 | 1012.3 |
| 20260905010503 | 79 | 23 | 0.9 | 1.7 | 0.00 | 0.48 | 0.48 | 86 | 1012.2 |
| 20260905005504 | 79 | 124 | 0.0 | 1.7 | 0.00 | 0.48 | 0.48 | 85 | 1012.3 |
| 20260905005003 | 79 | 136 | 0.0 | 1.7 | 0.00 | 0.48 | 0.48 | 85 | 1012.2 |
| 20260905004504 | 79 | 89 | 0.0 | 1.7 | 0.00 | 0.48 | 0.48 | 85 | 1012.2 |
| 20260905004003 | 79 | 20 | 0.0 | 1.7 | 0.00 | 0.48 | 0.48 | 85 | 1012.2 |
| 20260905003503 | 79 | 12 | 0.0 | 1.7 | 0.00 | 0.48 | 0.48 | 83 | 1012.1 |
| 20260905003003 | 80 | 30 | 0.0 | 1.7 | 0.00 | 0.48 | 0.48 | 83 | 1012.2 |
| 20260905002503 | 80 | 91 | 0.0 | 0.9 | 0.00 | 0.48 | 0.48 | 83 | 1012.2 |
| 20260905002004 | 80 | 117 | 0.0 | 1.7 | 0.00 | 0.48 | 0.48 | 83 | 1012.2 |
| 20260905001505 | 80 | 85 | 0.0 | 1.7 | 0.00 | 0.48 | 0.48 | 82 | 1012.0 |
| 20260905001004 | 80 | 85 | 0.0 | 1.7 | 0.00 | 0.48 | 0.48 | 81 | 1011.9 |
| 20260905000503 | 80 | 75 | 0.0 | 1.7 | 0.00 | 0.48 | 0.48 | 81 | 1011.9 |
| 20260905000003 | 80 | 33 | 0.0 | 1.7 | 0.00 | 0.48 | 0.48 | 80 | 1011.7 |
| 20260904235503 | 80 | 22 | 0.0 | 1.7 | 0.00 | 0.48 | 0.48 | 79 | 1011.6 |
| 20260904235003 | 81 | 16 | 0.0 | 1.7 | 0.00 | 0.48 | 0.48 | 80 | 1011.7 |
| 20260904234504 | 81 | 34 | 0.0 | 1.7 | 0.00 | 0.48 | 0.48 | 80 | 1011.6 |
| 20260904234003 | 81 | 90 | 0.0 | 1.7 | 0.00 | 0.48 | 0.48 | 78 | 1011.5 |
| 20260904233503 | 81 | 105 | 0.0 | 1.7 | 0.00 | 0.48 | 0.48 | 77 | 1011.5 |
| 20260904233005 | 82 | 90 | 0.0 | 1.7 | 0.00 | 0.48 | 0.48 | 77 | 1011.5 |
| 20260904232004 | 82 | 135 | 0.0 | 1.7 | 0.00 | 0.48 | 0.48 | 76 | 1011.5 |
| 20260904231503 | 82 | 82 | 0.0 | 1.7 | 0.00 | 0.48 | 0.48 | 77 | 1011.4 |
| 20260904231003 | 82 | 30 | 0.9 | 1.7 | 0.00 | 0.48 | 0.48 | 75 | 1011.6 |
| 20260904230004 | 82 | 68 | 0.0 | 1.7 | 0.00 | 0.48 | 0.48 | 75 | 1011.9 |
| 20260904225503 | 82 | 89 | 0.0 | 1.7 | 0.00 | 0.48 | 0.48 | 74 | 1012.1 |
| 20260904225004 | 83 | 91 | 0.0 | 1.7 | 0.00 | 0.48 | 0.48 | 73 | 1012.3 |
| 20260904224503 | 83 | 51 | 0.0 | 0.9 | 0.00 | 0.48 | 0.48 | 73 | 1012.4 |
| 20260904224004 | 83 | 352 | 0.9 | 3.5 | 0.00 | 0.48 | 0.48 | 73 | 1012.5 |
| 20260904223505 | 83 | 330 | 0.9 | 3.5 | 0.00 | 0.48 | 0.48 | 72 | 1012.8 |
| 20260904222504 | 83 | 5 | 0.0 | 1.7 | 0.00 | 0.48 | 0.48 | 73 | 1013.0 |
| 20260904221003 | 84 | 352 | 0.0 | 1.7 | 0.00 | 0.48 | 0.48 | 70 | 1012.9 |
| 20260904220503 | 84 | 326 | 0.9 | 3.5 | 0.00 | 0.48 | 0.48 | 71 | 1012.7 |
| 20260904220003 | 84 | 322 | 0.9 | 3.5 | 0.00 | 0.48 | 0.48 | 70 | 1012.8 |
| 20260904215503 | 84 | 324 | 1.7 | 6.1 | 0.00 | 0.48 | 0.48 | 69 | 1012.9 |
| 20260904215003 | 84 | 326 | 1.7 | 6.1 | 0.00 | 0.48 | 0.48 | 70 | 1012.8 |
| 20260904214504 | 85 | 335 | 1.7 | 5.2 | 0.00 | 0.48 | 0.48 | 71 | 1012.8 |
| 20260904214005 | 85 | 341 | 1.7 | 3.5 | 0.00 | 0.48 | 0.48 | 71 | 1012.8 |
| 20260904213504 | 85 | 336 | 1.7 | 7.0 | 0.00 | 0.48 | 0.48 | 70 | 1012.8 |
| 20260904212504 | 85 | 348 | 1.7 | 7.8 | 0.00 | 0.48 | 0.48 | 70 | 1012.9 |
| 20260904212003 | 86 | 357 | 2.6 | 7.0 | 0.00 | 0.48 | 0.48 | 69 | 1012.7 |
| 20260904211503 | 86 | 4 | 2.6 | 7.0 | 0.00 | 0.48 | 0.48 | 66 | 1012.6 |
| 20260904211003 | 86 | 346 | 1.7 | 6.1 | 0.00 | 0.48 | 0.48 | 67 | 1012.6 |
| 20260904210004 | 86 | 3 | 2.6 | 9.6 | 0.00 | 0.48 | 0.48 | 67 | 1012.5 |
| 20260904205003 | 86 | 332 | 3.5 | 11.3 | 0.00 | 0.48 | 0.48 | 65 | 1012.8 |
| 20260904204503 | 86 | 314 | 4.3 | 9.6 | 0.00 | 0.48 | 0.48 | 66 | 1012.8 |
| 20260904204003 | 86 | 310 | 4.3 | 10.4 | 0.00 | 0.48 | 0.48 | 65 | 1012.9 |
| 20260904203503 | 86 | 325 | 4.3 | 11.3 | 0.00 | 0.48 | 0.48 | 66 | 1012.9 |
| 20260904203003 | 86 | 338 | 4.3 | 11.3 | 0.00 | 0.48 | 0.48 | 66 | 1012.9 |
| 20260904202004 | 86 | 312 | 5.2 | 13.9 | 0.00 | 0.48 | 0.48 | 65 | 1012.7 |
| 20260904201503 | 86 | 312 | 5.2 | 13.9 | 0.00 | 0.48 | 0.48 | 64 | 1012.8 |
| 20260904200503 | 86 | 319 | 4.3 | 10.4 | 0.00 | 0.48 | 0.48 | 68 | 1012.7 |
| 20260904200005 | 86 | 324 | 3.5 | 10.4 | 0.00 | 0.48 | 0.48 | 67 | 1012.7 |
| 20260904195503 | 86 | 324 | 2.6 | 8.7 | 0.00 | 0.48 | 0.48 | 67 | 1012.8 |
| 20260904195003 | 87 | 316 | 3.5 | 8.7 | 0.00 | 0.48 | 0.48 | 67 | 1012.9 |
| 20260904194504 | 87 | 312 | 4.3 | 9.6 | 0.00 | 0.48 | 0.48 | 66 | 1012.9 |
| 20260904194003 | 87 | 315 | 3.5 | 9.6 | 0.00 | 0.48 | 0.48 | 66 | 1012.8 |
| 20260904193503 | 87 | 318 | 3.5 | 11.3 | 0.00 | 0.48 | 0.48 | 67 | 1012.9 |
| 20260904193004 | 87 | 332 | 3.5 | 11.3 | 0.00 | 0.48 | 0.48 | 65 | 1012.9 |
| 20260904192503 | 87 | 335 | 3.5 | 9.6 | 0.00 | 0.48 | 0.48 | 64 | 1013.0 |
| 20260904192003 | 87 | 322 | 3.5 | 9.6 | 0.00 | 0.48 | 0.48 | 67 | 1012.9 |
| 20260904191503 | 87 | 337 | 3.5 | 11.3 | 0.00 | 0.48 | 0.48 | 66 | 1013.0 |
| 20260904191004 | 87 | 340 | 5.2 | 11.3 | 0.00 | 0.48 | 0.48 | 66 | 1013.0 |
| 20260904190004 | 87 | 316 | 3.5 | 10.4 | 0.00 | 0.48 | 0.48 | 64 | 1013.3 |
| 20260904185503 | 87 | 318 | 2.6 | 10.4 | 0.00 | 0.48 | 0.48 | 66 | 1013.3 |
| 20260904185003 | 88 | 310 | 3.5 | 9.6 | 0.00 | 0.48 | 0.48 | 65 | 1013.3 |
| 20260904184503 | 88 | 318 | 3.5 | 9.6 | 0.00 | 0.48 | 0.48 | 65 | 1013.4 |
| 20260904184003 | 88 | 348 | 2.6 | 7.0 | 0.00 | 0.48 | 0.48 | 67 | 1013.4 |
| 20260904183504 | 88 | 337 | 2.6 | 8.7 | 0.00 | 0.48 | 0.48 | 66 | 1013.3 |
| 20260904183003 | 88 | 316 | 3.5 | 8.7 | 0.00 | 0.48 | 0.48 | 66 | 1013.4 |
| 20260904182503 | 88 | 317 | 1.7 | 7.8 | 0.00 | 0.48 | 0.48 | 65 | 1013.5 |
| 20260904181503 | 88 | 325 | 2.6 | 10.4 | 0.00 | 0.48 | 0.48 | 66 | 1013.5 |
| 20260904181003 | 88 | 320 | 3.5 | 10.4 | 0.00 | 0.48 | 0.48 | 66 | 1013.5 |
| 20260904180503 | 88 | 323 | 3.5 | 10.4 | 0.00 | 0.48 | 0.48 | 66 | 1013.6 |
| 20260904180003 | 88 | 335 | 2.6 | 7.0 | 0.00 | 0.48 | 0.48 | 66 | 1013.6 |
| 20260904175003 | 88 | 343 | 2.6 | 7.0 | 0.00 | 0.48 | 0.48 | 67 | 1013.7 |
| 20260904174503 | 88 | 336 | 1.7 | 8.7 | 0.00 | 0.48 | 0.48 | 67 | 1013.8 |
| 20260904174004 | 88 | 329 | 1.7 | 8.7 | 0.00 | 0.48 | 0.48 | 66 | 1013.8 |
| 20260904173504 | 88 | 330 | 1.7 | 11.3 | 0.00 | 0.48 | 0.48 | 67 | 1013.8 |
| 20260904173003 | 87 | 327 | 2.6 | 11.3 | 0.00 | 0.48 | 0.48 | 68 | 1013.8 |
| 20260904172503 | 87 | 347 | 3.5 | 10.4 | 0.00 | 0.48 | 0.48 | 66 | 1013.8 |
| 20260904172003 | 87 | 1 | 2.6 | 8.7 | 0.00 | 0.48 | 0.48 | 68 | 1013.8 |
| 20260904171503 | 87 | 319 | 2.6 | 12.2 | 0.00 | 0.48 | 0.48 | 67 | 1013.8 |
| 20260904171003 | 87 | 313 | 4.3 | 14.8 | 0.00 | 0.48 | 0.48 | 67 | 1013.9 |
| 20260904170503 | 87 | 320 | 3.5 | 14.8 | 0.00 | 0.48 | 0.48 | 66 | 1013.9 |
| 20260904170004 | 87 | 332 | 2.6 | 7.8 | 0.00 | 0.48 | 0.48 | 66 | 1014.1 |
| 20260904165503 | 87 | 327 | 2.6 | 8.7 | 0.00 | 0.48 | 0.48 | 67 | 1014.0 |
| 20260904165003 | 87 | 321 | 3.5 | 8.7 | 0.00 | 0.48 | 0.48 | 71 | 1014.0 |
| 20260904164503 | 87 | 338 | 2.6 | 8.7 | 0.00 | 0.48 | 0.48 | 68 | 1014.0 |
| 20260904164003 | 87 | 5 | 2.6 | 9.6 | 0.00 | 0.48 | 0.48 | 67 | 1014.1 |
| 20260904163504 | 87 | 345 | 3.5 | 9.6 | 0.00 | 0.48 | 0.48 | 67 | 1014.1 |
| 20260904163004 | 86 | 352 | 3.5 | 9.6 | 0.00 | 0.48 | 0.48 | 67 | 1014.1 |
| 20260904162003 | 86 | 353 | 3.5 | 10.4 | 0.00 | 0.48 | 0.48 | 68 | 1014.2 |
| 20260904161504 | 86 | 344 | 4.3 | 10.4 | 0.00 | 0.48 | 0.48 | 69 | 1014.3 |
| 20260904161003 | 85 | 328 | 3.5 | 11.3 | 0.00 | 0.48 | 0.48 | 72 | 1014.3 |
| 20260904160504 | 85 | 336 | 3.5 | 11.3 | 0.00 | 0.48 | 0.48 | 71 | 1014.3 |
| 20260904160003 | 86 | 352 | 3.5 | 9.6 | 0.00 | 0.48 | 0.48 | 70 | 1014.2 |
| 20260904155503 | 85 | 349 | 3.5 | 10.4 | 0.00 | 0.48 | 0.48 | 72 | 1014.2 |
| 20260904155003 | 85 | 335 | 3.5 | 10.4 | 0.00 | 0.48 | 0.48 | 72 | 1014.3 |
| 20260904154003 | 84 | 332 | 4.3 | 10.4 | 0.00 | 0.48 | 0.48 | 72 | 1014.3 |
| 20260904153503 | 84 | 337 | 4.3 | 11.3 | 0.00 | 0.48 | 0.48 | 71 | 1014.3 |
| 20260904153003 | 84 | 329 | 4.3 | 13.9 | 0.00 | 0.48 | 0.48 | 72 | 1014.3 |
| 20260904152503 | 85 | 333 | 5.2 | 13.9 | 0.00 | 0.48 | 0.48 | 72 | 1014.5 |
| 20260904152003 | 85 | 352 | 4.3 | 11.3 | 0.00 | 0.48 | 0.48 | 71 | 1014.4 |
| 20260904151503 | 84 | 345 | 4.3 | 10.4 | 0.00 | 0.48 | 0.48 | 71 | 1014.4 |
| 20260904151003 | 84 | 325 | 4.3 | 9.6 | 0.00 | 0.48 | 0.48 | 73 | 1014.4 |
| 20260904150004 | 84 | 354 | 4.3 | 12.2 | 0.00 | 0.48 | 0.48 | 74 | 1014.3 |
| 20260904145503 | 83 | 347 | 4.3 | 9.6 | 0.00 | 0.48 | 0.48 | 75 | 1014.3 |
| 20260904145003 | 83 | 346 | 3.5 | 8.7 | 0.00 | 0.48 | 0.48 | 75 | 1014.2 |
| 20260904144504 | 83 | 346 | 3.5 | 9.6 | 0.00 | 0.48 | 0.48 | 75 | 1014.2 |
| 20260904144003 | 82 | 350 | 4.3 | 15.6 | 0.00 | 0.48 | 0.48 | 76 | 1014.3 |
| 20260904143503 | 82 | 348 | 4.3 | 15.6 | 0.00 | 0.48 | 0.48 | 76 | 1014.3 |
| 20260904143003 | 81 | 330 | 5.2 | 14.8 | 0.00 | 0.48 | 0.48 | 78 | 1014.4 |
| 20260904142503 | 81 | 321 | 4.3 | 14.8 | 0.00 | 0.48 | 0.48 | 78 | 1014.3 |
| 20260904142004 | 81 | 334 | 3.5 | 10.4 | 0.00 | 0.48 | 0.48 | 81 | 1014.2 |
| 20260904141504 | 80 | 340 | 6.1 | 12.2 | 0.00 | 0.48 | 0.48 | 80 | 1014.3 |
| 20260904141003 | 80 | 336 | 5.2 | 12.2 | 0.00 | 0.48 | 0.48 | 80 | 1014.2 |
| 20260904140503 | 80 | 327 | 4.3 | 12.2 | 0.00 | 0.48 | 0.48 | 85 | 1014.2 |
| 20260904140003 | 79 | 324 | 4.3 | 12.2 | 0.00 | 0.48 | 0.48 | 85 | 1014.2 |
| 20260904135503 | 79 | 317 | 4.3 | 9.6 | 0.00 | 0.48 | 0.48 | 87 | 1014.0 |
| 20260904134503 | 78 | 309 | 5.2 | 11.3 | 0.00 | 0.48 | 0.48 | 90 | 1013.9 |
| 20260904134003 | 78 | 313 | 5.2 | 11.3 | 0.00 | 0.48 | 0.48 | 90 | 1014.0 |
| 20260904133503 | 77 | 318 | 3.5 | 8.7 | 0.00 | 0.48 | 0.48 | 92 | 1014.0 |
| 20260904132504 | 76 | 314 | 3.5 | 9.6 | 0.00 | 0.48 | 0.48 | 94 | 1014.2 |
| 20260904132003 | 76 | 314 | 4.3 | 14.8 | 0.00 | 0.48 | 0.48 | 95 | 1014.1 |
| 20260904131503 | 75 | 314 | 6.1 | 14.8 | 0.00 | 0.48 | 0.48 | 95 | 1014.4 |
| 20260904131003 | 75 | 316 | 5.2 | 13.0 | 0.00 | 0.48 | 0.48 | 96 | 1014.4 |
| 20260904130504 | 75 | 315 | 4.3 | 13.0 | 0.00 | 0.48 | 0.48 | 96 | 1014.3 |
| 20260904130003 | 75 | 316 | 3.5 | 15.6 | 0.00 | 0.48 | 0.48 | 97 | 1014.4 |
| 20260904125003 | 74 | 335 | 1.7 | 5.2 | 0.00 | 0.48 | 0.48 | 97 | 1014.3 |
| 20260904124503 | 74 | 317 | 2.6 | 11.3 | 0.00 | 0.48 | 0.48 | 97 | 1014.3 |
| 20260904124003 | 74 | 319 | 2.6 | 11.3 | 0.00 | 0.48 | 0.48 | 97 | 1014.3 |
| 20260904123503 | 74 | 325 | 2.6 | 10.4 | 0.00 | 0.48 | 0.48 | 97 | 1014.4 |
| 20260904122503 | 74 | 318 | 2.6 | 8.7 | 0.00 | 0.48 | 0.48 | 97 | 1014.4 |
| 20260904122004 | 74 | 331 | 1.7 | 6.1 | 0.00 | 0.48 | 0.48 | 97 | 1014.2 |
| 20260904121503 | 74 | 335 | 1.7 | 6.1 | 0.00 | 0.48 | 0.48 | 97 | 1014.3 |
| 20260904121003 | 74 | 338 | 1.7 | 6.1 | 0.00 | 0.48 | 0.48 | 97 | 1014.2 |
| 20260904120504 | 74 | 343 | 0.9 | 5.2 | 0.00 | 0.48 | 0.48 | 97 | 1014.2 |
| 20260904120004 | 74 | 351 | 0.9 | 3.5 | 0.01 | 0.48 | 0.48 | 97 | 1014.0 |
| 20260904115503 | 74 | 339 | 0.9 | 3.5 | 0.01 | 0.48 | 0.48 | 97 | 1014.2 |
| 20260904115003 | 74 | 339 | 0.9 | 3.5 | 0.01 | 0.48 | 0.48 | 97 | 1014.4 |
| 20260904114003 | 73 | 334 | 0.9 | 5.2 | 0.01 | 0.48 | 0.48 | 97 | 1014.4 |
| 20260904113503 | 73 | 341 | 0.9 | 4.3 | 0.01 | 0.48 | 0.48 | 97 | 1014.3 |
| 20260904113003 | 73 | 352 | 0.9 | 3.5 | 0.01 | 0.48 | 0.48 | 97 | 1014.2 |
| 20260904112504 | 73 | 345 | 0.9 | 3.5 | 0.01 | 0.48 | 0.48 | 97 | 1014.2 |
| 20260904112003 | 73 | 329 | 0.9 | 4.3 | 0.01 | 0.48 | 0.48 | 97 | 1014.4 |
| 20260904110503 | 72 | 352 | 0.9 | 5.2 | 0.01 | 0.48 | 0.48 | 97 | 1014.1 |
| 20260904110004 | 72 | 342 | 0.9 | 5.2 | 0.00 | 0.47 | 0.47 | 97 | 1014.0 |
| 20260904104503 | 72 | 348 | 0.9 | 3.5 | 0.00 | 0.47 | 0.47 | 97 | 1013.8 |
| 20260904104003 | 72 | 357 | 0.9 | 2.6 | 0.00 | 0.47 | 0.47 | 97 | 1013.6 |
| 20260904103003 | 72 | 1 | 0.9 | 1.7 | 0.00 | 0.47 | 0.47 | 97 | 1013.5 |
| 20260904102503 | 72 | 2 | 0.9 | 1.7 | 0.00 | 0.47 | 0.47 | 97 | 1013.5 |
| 20260904102003 | 72 | 7 | 0.9 | 1.7 | 0.00 | 0.47 | 0.47 | 97 | 1013.6 |
| 20260904101503 | 72 | 345 | 0.9 | 2.6 | 0.00 | 0.47 | 0.47 | 97 | 1013.5 |
| 20260904101003 | 72 | 319 | 0.9 | 4.3 | 0.00 | 0.47 | 0.47 | 97 | 1013.5 |
| 20260904100503 | 72 | 316 | 1.7 | 4.3 | 0.00 | 0.47 | 0.47 | 97 | 1013.5 |
| 20260904100003 | 72 | 318 | 0.9 | 4.3 | 0.00 | 0.47 | 0.47 | 97 | 1013.5 |
| 20260904095503 | 72 | 343 | 0.9 | 2.6 | 0.00 | 0.47 | 0.47 | 96 | 1013.4 |
| 20260904095004 | 72 | 359 | 0.9 | 2.6 | 0.00 | 0.47 | 0.47 | 96 | 1013.4 |
| 20260904094503 | 72 | 338 | 0.9 | 2.6 | 0.00 | 0.47 | 0.47 | 96 | 1013.2 |
| 20260904094004 | 72 | 331 | 0.9 | 2.6 | 0.00 | 0.47 | 0.47 | 96 | 1013.2 |
| 20260904093503 | 72 | 344 | 0.0 | 2.6 | 0.00 | 0.47 | 0.47 | 96 | 1013.3 |
| 20260904093004 | 72 | 356 | 0.0 | 1.7 | 0.00 | 0.47 | 0.47 | 96 | 1013.3 |
| 20260904092503 | 72 | 359 | 0.0 | 1.7 | 0.00 | 0.47 | 0.47 | 96 | 1013.4 |
| 20260904092003 | 72 | 13 | 0.0 | 1.7 | 0.00 | 0.47 | 0.47 | 96 | 1013.4 |
| 20260904091504 | 72 | 58 | 0.0 | 1.7 | 0.00 | 0.47 | 0.47 | 96 | 1013.3 |
| 20260904091003 | 72 | 11 | 0.0 | 1.7 | 0.00 | 0.47 | 0.47 | 96 | 1013.4 |
| 20260904090504 | 72 | 353 | 0.0 | 1.7 | 0.00 | 0.47 | 0.47 | 96 | 1013.6 |
| 20260904090004 | 73 | 5 | 0.0 | 1.7 | 0.00 | 0.47 | 0.47 | 96 | 1013.6 |
| 20260904084503 | 73 | 9 | 0.0 | 1.7 | 0.00 | 0.47 | 0.47 | 96 | 1013.6 |
| 20260904084003 | 73 | 352 | 0.0 | 3.5 | 0.00 | 0.47 | 0.47 | 96 | 1013.6 |
| 20260904083503 | 73 | 346 | 0.0 | 3.5 | 0.00 | 0.47 | 0.47 | 96 | 1013.5 |
| 20260904083004 | 73 | 1 | 0.0 | 1.7 | 0.00 | 0.47 | 0.47 | 96 | 1013.4 |
| 20260904082503 | 73 | 1 | 0.0 | 1.7 | 0.00 | 0.47 | 0.47 | 96 | 1013.3 |
| 20260904082003 | 73 | 16 | 0.0 | 1.7 | 0.00 | 0.47 | 0.47 | 96 | 1013.4 |
| 20260904081504 | 73 | 10 | 0.0 | 1.7 | 0.00 | 0.47 | 0.47 | 96 | 1013.3 |
| 20260904081003 | 73 | 26 | 0.9 | 2.6 | 0.00 | 0.47 | 0.47 | 96 | 1013.4 |
| 20260904080503 | 73 | 45 | 0.9 | 2.6 | 0.00 | 0.47 | 0.47 | 96 | 1013.5 |
| 20260904080003 | 73 | 26 | 0.0 | 1.7 | 0.00 | 0.47 | 0.47 | 96 | 1013.8 |
| 20260904075003 | 73 | 4 | 0.0 | 2.6 | 0.01 | 0.47 | 0.47 | 96 | 1014.2 |
| 20260904074504 | 73 | 3 | 0.9 | 2.6 | 0.01 | 0.47 | 0.47 | 96 | 1014.2 |
| 20260904074003 | 73 | 2 | 0.9 | 2.6 | 0.02 | 0.47 | 0.47 | 96 | 1014.3 |
| 20260904073504 | 73 | 2 | 0.9 | 1.7 | 0.02 | 0.48 | 0.47 | 96 | 1014.3 |
| 20260904073003 | 73 | 3 | 0.0 | 1.7 | 0.03 | 0.48 | 0.47 | 96 | 1014.4 |
| 20260904072503 | 73 | 353 | 0.0 | 1.7 | 0.04 | 0.48 | 0.47 | 96 | 1014.7 |
| 20260904072005 | 73 | 327 | 0.0 | 1.7 | 0.05 | 0.48 | 0.47 | 96 | 1014.6 |
| 20260904071003 | 73 | 359 | 1.7 | 6.1 | 0.09 | 0.48 | 0.47 | 96 | 1014.5 |
| 20260904070503 | 73 | 2 | 2.6 | 7.0 | 0.10 | 0.48 | 0.47 | 96 | 1014.4 |
| 20260904070003 | 73 | 2 | 3.5 | 9.6 | 0.13 | 0.48 | 0.47 | 96 | 1014.6 |
| 20260904065504 | 73 | 1 | 3.5 | 9.6 | 0.14 | 0.47 | 0.46 | 96 | 1014.5 |
| 20260904065003 | 73 | 1 | 3.5 | 8.7 | 0.16 | 0.47 | 0.46 | 96 | 1014.5 |
| 20260904064504 | 73 | 2 | 3.5 | 8.7 | 0.17 | 0.47 | 0.46 | 96 | 1014.6 |
| 20260904064003 | 73 | 3 | 3.5 | 8.7 | 0.17 | 0.46 | 0.45 | 96 | 1014.2 |
| 20260904063503 | 73 | 7 | 1.7 | 7.0 | 0.18 | 0.46 | 0.45 | 96 | 1013.9 |
| 20260904063004 | 73 | 12 | 0.9 | 4.3 | 0.17 | 0.45 | 0.44 | 96 | 1013.9 |
| 20260904062503 | 73 | 11 | 0.9 | 4.3 | 0.20 | 0.44 | 0.43 | 96 | 1014.2 |
| 20260904061504 | 73 | 338 | 2.6 | 11.3 | 0.40 | 0.41 | 0.40 | 96 | 1014.2 |
| 20260904061003 | 73 | 324 | 7.8 | 11.3 | 0.38 | 0.39 | 0.38 | 96 | 1014.3 |
| 20260904060503 | 73 | 322 | 11.3 | 11.3 | 0.36 | 0.37 | 0.36 | 95 | 1014.7 |
| 20260904055504 | 73 | 319 | 7.8 | 13.0 | 0.32 | 0.33 | 0.32 | 95 | 1015.4 |
| 20260904054503 | 73 | 319 | 5.2 | 18.2 | 0.28 | 0.29 | 0.28 | 95 | 1015.9 |
| 20260904054004 | 73 | 313 | 9.6 | 26.1 | 0.28 | 0.29 | 0.28 | 94 | 1015.8 |
| 20260904053503 | 73 | 311 | 13.0 | 26.1 | 0.27 | 0.28 | 0.27 | 93 | 1015.8 |
| 20260904052503 | 75 | 310 | 17.4 | 33.9 | 0.22 | 0.23 | 0.22 | 91 | 1015.6 |
| 20260904052003 | 77 | 312 | 15.6 | 27.8 | 0.14 | 0.15 | 0.14 | 90 | 1015.8 |
| 20260904051504 | 80 | 322 | 5.2 | 26.1 | 0.00 | 0.02 | 0.00 | 95 | 1015.3 |